Time,TemperatureF,DewpointF,PressureIn,WindDirection,WindDirectionDegrees,WindSpeedMPH,WindSpeedGustMPH,Humidity,HourlyPrecipIn,Conditions,Clouds,dailyrainin,SoftwareType,DateUTC
2017-04-24 00:09:00,47.0,44.0,30.02,SSE,162,0.0,0.0,90,0.00,,,0.00,weatherlink.com 1.10,2017-04-24 07:09:00,
2017-04-24 00:24:00,47.1,45.0,30.03,SSE,162,0.0,0.0,91,0.00,,,0.00,weatherlink.com 1.10,2017-04-24 07:24:00,
2017-04-24 00:39:00,47.1,45.0,30.03,SSE,162,0.0,0.0,91,0.00,,,0.00,weatherlink.com 1.10,2017-04-24 07:39:00,
2017-04-24 00:54:00,47.0,44.0,30.03,SSE,162,0.0,0.0,90,0.00,,,0.00,weatherlink.com 1.10,2017-04-24 07:54:00,
2017-04-24 01:09:00,46.9,44.0,30.03,SSE,162,0.0,0.0,90,0.00,,,0.00,weatherlink.com 1.10,2017-04-24 08:09:00,
2017-04-24 01:24:00,46.8,44.0,30.02,SSE,162,0.0,0.0,91,0.00,,,0.00,weatherlink.com 1.10,2017-04-24 08:24:00,
2017-04-24 01:39:00,47.2,45.0,30.02,SSE,162,0.0,0.0,91,0.00,,,0.00,weatherlink.com 1.10,2017-04-24 08:39:00,
2017-04-24 01:54:00,47.5,45.0,30.02,SSE,162,0.0,0.0,91,0.00,,,0.00,weatherlink.com 1.10,2017-04-24 08:54:00,
2017-04-24 02:10:00,47.8,45.0,30.02,SSE,162,0.0,0.0,90,0.00,,,0.00,weatherlink.com 1.10,2017-04-24 09:10:00,
2017-04-24 02:25:00,47.8,45.0,30.02,SSE,162,0.0,0.0,90,0.00,,,0.00,weatherlink.com 1.10,2017-04-24 09:25:00,
2017-04-24 02:40:00,47.6,45.0,30.02,SSE,162,0.0,0.0,90,0.00,,,0.00,weatherlink.com 1.10,2017-04-24 09:40:00,
2017-04-24 02:55:00,47.4,45.0,30.02,SSE,162,0.0,0.0,90,0.00,,,0.00,weatherlink.com 1.10,2017-04-24 09:55:00,
2017-04-24 03:10:00,47.2,45.0,30.02,SSE,162,0.0,0.0,90,0.00,,,0.00,weatherlink.com 1.10,2017-04-24 10:10:00,
2017-04-24 03:25:00,47.2,45.0,30.03,SSE,162,0.0,0.0,91,0.00,,,0.00,weatherlink.com 1.10,2017-04-24 10:25:00,
2017-04-24 03:40:00,47.5,45.0,30.02,SSE,162,0.0,0.0,91,0.00,,,0.00,weatherlink.com 1.10,2017-04-24 10:40:00,
2017-04-24 03:55:00,47.6,45.0,30.03,SSE,162,0.0,0.0,91,0.00,,,0.00,weatherlink.com 1.10,2017-04-24 10:55:00,
2017-04-24 04:10:00,48.0,46.0,30.03,SSE,162,0.0,0.0,91,0.00,,,0.00,weatherlink.com 1.10,2017-04-24 11:10:00,
2017-04-24 04:25:00,48.4,46.0,30.03,SSE,162,0.0,0.0,91,0.00,,,0.00,weatherlink.com 1.10,2017-04-24 11:25:00,
2017-04-24 04:40:00,48.7,46.0,30.04,SSE,162,0.0,0.0,91,0.00,,,0.00,weatherlink.com 1.10,2017-04-24 11:40:00,
2017-04-24 05:10:00,49.1,46.0,30.04,SSE,162,0.0,0.0,89,0.00,,,0.00,weatherlink.com 1.10,2017-04-24 12:10:00,
2017-04-24 05:40:00,49.9,47.0,30.04,SE,139,0.0,0.0,88,0.00,,,0.00,weatherlink.com 1.10,2017-04-24 12:40:00,
2017-04-24 05:55:00,49.8,46.0,30.03,SE,139,0.0,0.0,88,0.00,,,0.00,weatherlink.com 1.10,2017-04-24 12:55:00,
2017-04-24 06:10:00,49.7,46.0,30.04,SE,139,0.0,0.0,87,0.00,,,0.00,weatherlink.com 1.10,2017-04-24 13:10:00,
2017-04-24 06:25:00,49.7,46.0,30.04,SE,139,0.0,0.0,88,0.00,,,0.00,weatherlink.com 1.10,2017-04-24 13:25:00,
2017-04-24 06:40:00,49.8,46.0,30.05,SE,139,0.0,0.0,88,0.00,,,0.00,weatherlink.com 1.10,2017-04-24 13:40:00,
2017-04-24 06:55:00,49.9,47.0,30.05,SE,139,0.0,0.0,88,0.00,,,0.00,weatherlink.com 1.10,2017-04-24 13:55:00,
2017-04-24 07:10:00,50.3,47.0,30.04,SE,139,0.0,0.0,89,0.00,,,0.00,weatherlink.com 1.10,2017-04-24 14:10:00,
2017-04-24 07:25:00,50.7,47.0,30.04,SE,141,0.0,0.0,87,0.00,,,0.00,weatherlink.com 1.10,2017-04-24 14:25:00,
2017-04-24 07:40:00,51.2,47.0,30.05,SE,141,0.0,0.0,86,0.00,,,0.00,weatherlink.com 1.10,2017-04-24 14:40:00,
2017-04-24 07:55:00,51.8,48.0,30.05,SE,141,0.0,0.0,86,0.00,,,0.00,weatherlink.com 1.10,2017-04-24 14:55:00,
2017-04-24 08:10:00,52.8,49.0,30.06,SE,141,0.0,0.0,86,0.00,,,0.00,weatherlink.com 1.10,2017-04-24 15:10:00,
2017-04-24 08:25:00,53.6,49.0,30.06,SSE,158,0.0,0.0,84,0.00,,,0.00,weatherlink.com 1.10,2017-04-24 15:25:00,
2017-04-24 08:40:00,54.4,50.0,30.06,SSE,150,0.0,0.0,84,0.00,,,0.00,weatherlink.com 1.10,2017-04-24 15:40:00,
2017-04-24 08:55:00,55.1,50.0,30.05,SSW,212,0.0,0.0,82,0.00,,,0.00,weatherlink.com 1.10,2017-04-24 15:55:00,
2017-04-24 09:11:00,55.9,50.0,30.05,ESE,123,0.0,0.0,80,0.00,,,0.00,weatherlink.com 1.10,2017-04-24 16:11:00,
2017-04-24 09:26:00,55.0,50.0,30.06,SSE,148,0.0,0.0,82,0.00,,,0.00,weatherlink.com 1.10,2017-04-24 16:26:00,
2017-04-24 09:41:00,54.8,50.0,30.07,SSE,159,0.0,0.0,84,0.00,,,0.00,weatherlink.com 1.10,2017-04-24 16:41:00,
2017-04-24 09:56:00,55.1,50.0,30.07,West,278,0.0,0.0,82,0.00,,,0.00,weatherlink.com 1.10,2017-04-24 16:56:00,
2017-04-24 10:11:00,55.3,50.0,30.08,SSE,149,0.0,0.0,82,0.00,,,0.00,weatherlink.com 1.10,2017-04-24 17:11:00,
2017-04-24 10:26:00,55.7,51.0,30.08,South,185,0.0,0.0,83,0.00,,,0.00,weatherlink.com 1.10,2017-04-24 17:26:00,
2017-04-24 10:41:00,56.1,51.0,30.08,SSE,160,0.0,0.0,82,0.00,,,0.00,weatherlink.com 1.10,2017-04-24 17:41:00,
2017-04-24 10:56:00,56.7,52.0,30.08,South,172,0.0,0.0,83,0.00,,,0.00,weatherlink.com 1.10,2017-04-24 17:56:00,
2017-04-24 11:11:00,56.2,51.0,30.09,South,179,0.0,0.0,83,0.00,,,0.00,weatherlink.com 1.10,2017-04-24 18:11:00,
2017-04-24 11:26:00,56.7,52.0,30.09,SSE,154,0.0,0.0,83,0.00,,,0.00,weatherlink.com 1.10,2017-04-24 18:26:00,
2017-04-24 11:41:00,57.6,52.0,30.09,SSE,164,0.0,0.0,81,0.00,,,0.00,weatherlink.com 1.10,2017-04-24 18:41:00,
2017-04-24 11:56:00,59.0,52.0,30.08,SE,127,0.0,0.0,78,0.00,,,0.00,weatherlink.com 1.10,2017-04-24 18:56:00,
2017-04-24 12:11:00,59.6,53.0,30.08,SW,216,0.0,0.0,78,0.00,,,0.00,weatherlink.com 1.10,2017-04-24 19:11:00,
2017-04-24 12:26:00,59.2,53.0,30.08,ESE,111,0.0,0.0,79,0.00,,,0.00,weatherlink.com 1.10,2017-04-24 19:26:00,
2017-04-24 12:41:00,59.0,53.0,30.08,SW,234,0.0,0.0,81,0.00,,,0.00,weatherlink.com 1.10,2017-04-24 19:41:00,
2017-04-24 12:56:00,60.1,54.0,30.07,SE,146,0.0,0.0,80,0.00,,,0.00,weatherlink.com 1.10,2017-04-24 19:56:00,
2017-04-24 13:11:00,60.2,54.0,30.07,SSE,163,0.0,0.0,79,0.00,,,0.00,weatherlink.com 1.10,2017-04-24 20:11:00,
2017-04-24 13:26:00,61.2,54.0,30.07,ENE,72,0.0,0.0,78,0.00,,,0.00,weatherlink.com 1.10,2017-04-24 20:26:00,
2017-04-24 13:41:00,61.3,54.0,30.07,NNE,22,0.0,0.0,77,0.00,,,0.00,weatherlink.com 1.10,2017-04-24 20:41:00,
2017-04-24 13:56:00,62.7,54.0,30.07,SSE,158,0.0,0.0,73,0.00,,,0.00,weatherlink.com 1.10,2017-04-24 20:56:00,
2017-04-24 14:11:00,61.6,54.0,30.07,SSE,154,0.0,0.0,75,0.00,,,0.00,weatherlink.com 1.10,2017-04-24 21:11:00,
2017-04-24 14:26:00,61.1,54.0,30.07,SSE,149,0.0,0.0,77,0.00,,,0.00,weatherlink.com 1.10,2017-04-24 21:26:00,
2017-04-24 14:41:00,61.4,54.0,30.07,SE,131,0.0,0.0,76,0.00,,,0.00,weatherlink.com 1.10,2017-04-24 21:41:00,
2017-04-24 14:56:00,61.5,54.0,30.07,SE,144,0.0,0.0,75,0.00,,,0.00,weatherlink.com 1.10,2017-04-24 21:56:00,
2017-04-24 15:11:00,60.6,53.0,30.07,NNE,23,0.0,0.0,77,0.00,,,0.00,weatherlink.com 1.10,2017-04-24 22:11:00,
2017-04-24 15:26:00,59.1,53.0,30.07,SE,127,0.0,0.0,81,0.00,,,0.00,weatherlink.com 1.10,2017-04-24 22:26:00,
2017-04-24 15:41:00,59.7,54.0,30.07,SSE,159,0.0,0.0,81,0.00,,,0.00,weatherlink.com 1.10,2017-04-24 22:41:00,
2017-04-24 16:11:00,60.0,54.0,30.06,ENE,63,0.0,0.0,80,0.00,,,0.00,weatherlink.com 1.10,2017-04-24 23:11:00,